• Join FlightAware (Why Join?)
  • Login
  • US Flag 
Gobble Gobble! 
01:56PM EST


 

Airport Tracker/Info


-or-


 

Live Flight TrackerFlight Track Log ✈ SKW4621 ✈ 09-May-2013 ✈ KMSP - KFAR

Flight Track Log - Related Links

Times and Time Zones

All times are in EDT time to prevent confusion due to time zone crossing. See the SKW4621 flight status page for this flight to view local times or setup timezone preferences in your user account.

Time Position Orientation Groundspeed Altitude Reporting Facility
EDT Latitude Longitude Course Direction KTS MPH feet Rate Location/Type
03:16PM 44.9333 -93.2833 301° West 208 239 2,800  Level Minneapolis TRACON
03:16PM 44.9433 -93.2944 322° Northwest 218 251 3,100 2,340 Climbing Minneapolis Center
03:17PM 44.9931 -93.3697 313° West 261 300 6,000 2,760 Climbing Minneapolis Center
03:18PM 45.2045 -93.5300 295° West  Level FlightAware Approximate
03:18PM 45.0422 -93.4503 311° West 270 311 8,900  Level Minneapolis Center
03:19PM 45.2498 -93.6659 295° West  Level FlightAware Approximate
03:19PM 45.0922 -93.5328 311° West 278 320 11,200  Level Minneapolis Center
03:20PM 45.3012 -93.7972 301° West  Level FlightAware Approximate
03:20PM 45.1711 -93.6619 311° West 311 358 14,000  Level Minneapolis Center
03:21PM 45.3455 -93.9023 301° West  Level FlightAware Approximate
03:21PM 45.2192 -93.7411 311° West 329 379 15,400  Level Minneapolis Center
03:22PM 45.2931 -93.8628 311° West 342 394 17,600 1,740 Climbing Minneapolis Center
03:23PM 45.3547 -93.9681 310° West 346 398 19,100 1,320 Climbing Minneapolis Center
03:24PM 45.4183 -94.0756 310° West 353 406 20,400 1,500 Climbing Minneapolis Center
03:25PM 45.4781 -94.2294 299° West 370 426 22,200 1,380 Climbing Minneapolis Center
03:26PM 45.5269 -94.3586 298° West 370 426 23,300 1,020 Climbing Minneapolis Center
03:27PM 45.5761 -94.4911 298° West 376 433 24,400 960 Climbing Minneapolis Center
03:29PM 45.6269 -94.6264 298° West 386 444 25,300 720 Climbing Minneapolis Center
03:30PM 45.6786 -94.7614 299° West 388 447 26,000 300 Climbing Minneapolis Center
03:31PM 45.7297 -94.8994 298° West 393 452 26,000  Level Minneapolis Center
03:32PM 45.7847 -95.0353 300° West 396 456 26,000  Level Minneapolis Center
03:33PM 45.8514 -95.2092 299° West 397 457 26,000  Level Minneapolis Center
03:34PM 45.8953 -95.3175 300° West 396 456 26,000 -480 Level Minneapolis Center
03:35PM 45.9619 -95.4808 300° West 397 457 25,100 -1,920 Descending Minneapolis Center
03:36PM 46.0186 -95.6203 300° West 403 464 22,100 -2,700 Descending Minneapolis Center
03:37PM 46.0825 -95.7450 306° West 394 453 19,100 -2,640 Descending Minneapolis Center
03:38PM 46.1522 -95.8583 312° West 383 441 16,200 -3,360 Descending Minneapolis Center
03:39PM 46.2439 -96.0069 312° West 352 405 12,200 -2,640 Descending Minneapolis Center
03:40PM 46.3042 -96.1047 312° West 310 357 10,800 -1,440 Descending Minneapolis Center
03:41PM 46.3533 -96.1858 311° West 279 321 9,300 -1,380 Descending Minneapolis Center
03:42PM 46.4047 -96.2686 312° West 267 307 8,000 -1,080 Descending Minneapolis Center
03:43PM 46.4542 -96.3544 310° West 263 303 7,100 -1,020 Descending Minneapolis Center
03:44PM 46.5061 -96.4392 312° West 270 311 6,000 -1,080 Descending Minneapolis Center
03:45PM 46.5569 -96.5233 311° West 266 306 4,900 -840 Descending Minneapolis Center
03:46PM 46.6028 -96.5739 323° Northwest 260 299 4,300 -600 Descending Minneapolis Center
03:47PM 46.6692 -96.6492 322° Northwest 252 290 3,600 -720 Descending Minneapolis Center
03:49PM 46.7403 -96.7294 322° Northwest 250 288 2,800 -780 Descending Minneapolis Center